This demonstration page uses our WeatherBlox Daily Observations layout. Learn more.

Left ArrowRight Arrow

39.12711, -84.51439

Hourly Observations for December 7, 2021

Temp ( °F °C ) Dew Point ( °F °C ) Humidity (%) Winds ( mph kmh ) Pressure ( in mb ) Visibility ( mi km ) Precip ( " mm )
12:53 am 00:53 Clear 28 -2.2 3 -16.1 34 34 NW 10 17 30.30 1026 10 16 0.00 0.00
1:53 am 01:53 Clear 28 -2.2 4 -15.6 35 35 NNW 6 9 30.29 1026 10 16 0.00 0.00
2:53 am 02:53 Clear 27 -2.8 7 -13.9 43 43 NNW 8 13 30.31 1026 10 16 0.00 0.00
3:53 am 03:53 Clear 26 -3.3 9 -12.8 48 48 N 6 9 30.31 1026 10 16 0.00 0.00
4:53 am 04:53 Clear 25 -3.9 9 -12.8 50 50 N 9 15 30.26 1025 10 16 0.00 0.00
5:53 am 05:53 Clear 24 -4.4 10 -12.2 55 55 NW 3 6 30.29 1026 10 16 0.00 0.00
6:53 am 06:53 Clear 22 -5.6 11 -11.7 63 63 Calm 30.32 1027 10 16 0.00 0.00
7:53 am 07:53 Sunny 24 -4.4 13 -10.6 62 62 Calm 30.32 1027 10 16 0.00 0.00
8:53 am 08:53 Sunny 25 -3.9 13 -10.6 60 60 NE 3 6 30.33 1027 10 16 0.00 0.00
9:53 am 09:53 Sunny 26 -3.3 10 -12.2 51 51 Calm 30.34 1028 10 16 0.00 0.00
10:53 am 10:53 Sunny 27 -2.8 10 -12.2 49 49 ENE 3 6 30.34 1027 10 16 0.00 0.00
11:53 am 11:53 Sunny 28 -2.2 10 -12.2 47 47 Calm 30.32 1027 10 16 0.00 0.00
12:53 pm 12:53 Cloudy 29 -1.7 12 -11.1 49 49 S 8 13 30.30 1026 10 16 0.00 0.00
1:53 pm 13:53 Mostly Cloudy 29 -1.7 11 -11.7 47 47 Calm 30.26 1025 10 16 0.00 0.00
2:53 pm 14:53 Cloudy 30 -1.1 10 -12.2 43 43 Calm 30.26 1025 10 16 0.00 0.00
3:53 pm 15:53 Cloudy 30 -1.1 12 -11.1 47 47 S 6 9 30.25 1024 10 16 0.00 0.00
4:53 pm 16:53 Cloudy 30 -1.1 11 -11.7 45 45 Calm 30.23 1024 10 16 0.00 0.00
5:53 pm 17:53 Cloudy 30 -1.1 11 -11.7 45 45 Calm 30.23 1024 10 16 0.00 0.00
6:53 pm 18:53 Cloudy 29 -1.7 13 -10.6 51 51 NE 7 11 30.20 1023 10 16 0.00 0.00
7:53 pm 19:53 Cloudy 29 -1.7 14 -10 54 54 ENE 6 9 30.18 1022 10 16 0.00 0.00
8:53 pm 20:53 Cloudy 27 -2.8 18 -7.8 69 69 NE 8 13 30.19 1022 10 16 0.00 0.00
9:53 pm 21:53 Cloudy 27 -2.8 20 -6.7 75 75 E 5 7 30.16 1022 10 16 0.00 0.00
10:06 pm 22:06 Cloudy with Light Snow 27 -2.8 18 -7.8 69 69 ENE 6 9 30.18 1022 5 8 0.00 0.00
10:53 pm 22:53 Cloudy with Light Snow 26 -3.3 22 -5.6 84 84 NE 5 7 30.16 1021 3 5 0.00 0.00
11:07 pm 23:07 Cloudy with Light Snow 26 -3.3 22 -5.6 84 84 NE 5 7 30.19 1022 3 4 0.00 0.00
11:41 pm 23:41 Cloudy with Light Snow 25 -3.9 24 -4.4 96 96 NE 5 7 30.17 1022 3 4 0.00 0.00
11:53 pm 23:53 Cloudy with Light Snow 25 -3.9 24 -4.4 96 96 NE 5 7 30.14 1021 2 3 0.00 0.00
11:57 pm 23:57 Cloudy with Light Snow 25 -3.9 24 -4.4 96 96 NNE 5 7 30.17 1022 2 3 0.00 0.00

Powered by AerisWeather